Tracking 27423 objects as of 8-Jun-2023
HD Live streaming from Space Station
objects crossing your sky now

FLOCK 4S 29

Track FLOCK 4S 29 now!
10-day predictions
FLOCK 4S 29 is classified as:


NORAD ID: 47520
Int'l Code: 2021-006DL
Perigee: 478.5 km
Apogee: 489.1 km
Inclination: 97.4 °
Period: 94.1 minutes
Semi major axis: 6854 km
RCS: Unknown
Launch date: January 24, 2021
Source: United States (US)
Launch site: AIR FORCE EASTERN TEST RANGE (AFETR)
Your satellite tracking list
Your tracking list is empty




NASA's NSSDC Master Catalog

Two Line Element Set (TLE):
1 47520U 21006DL  23158.91192113  .00012634  00000-0  44093-3 0  9992
2 47520  97.3837 217.0626 0007699 120.0308 240.1697 15.29711315131296
Source of the keplerian elements: AFSPC